QPF
0.02 0.01 0.01 0.01 0.02 0.06 0.10 0.14 0.17 0.18 0.17 0.15 0.12 0.09 0.05 0.03 0.02 0.01 0.01 0.02 0.03 0.03 0.04 0.07 0.12 0.18 0.21 0.22 0.25 0.27 0.28 0.30 0.28 0.25 0.27 0.18 0.14 0.08 0.04 0.02 0.01 0.01 0.01
0.00 0.00 0.00 0.00 0.00 0.01 0.03 0.07 0.13 0.18 0.19 0.18 0.16 0.13 0.09 0.06 0.05 0.02 0.01 0.01 0.02 0.02 0.02 0.05 0.07 0.10 0.13 0.13 0.14 0.20 0.27 0.33 0.30 0.16 0.13 0.12 0.10 0.06 0.03 0.03 0.03 0.02 0.01
0.00 0.00 0.00 0.00 0.00 0.00 0.00 0.01 0.03 0.08 0.13 0.16 0.16 0.14 0.11 0.09 0.07 0.04 0.02 0.01 0.02 0.01 0.03 0.08 0.09 0.11 0.11 0.04 0.02 0.05 0.15 0.28 0.31 0.19 0.11 0.10 0.10 0.06 0.04 0.04 0.04 0.03 0.03
0.00 0.00 0.00 0.00 0.01 0.02 0.02 0.02 0.02 0.02 0.06 0.10 0.13 0.14 0.13 0.11 0.09 0.06 0.04 0.02 0.02 0.02 0.04 0.05 0.06 0.08 0.09 0.05 0.01 0.02 0.07 0.15 0.19 0.18 0.19 0.23 0.19 0.11 0.06 0.04 0.04 0.04 0.02
0.00 0.00 0.00 0.00 0.01 0.01 0.03 0.03 0.03 0.03 0.04 0.08 0.13 0.13 0.12 0.11 0.08 0.07 0.06 0.03 0.02 0.02 0.03 0.04 0.02 0.02 0.02 0.01 0.00 0.01 0.06 0.11 0.18 0.21 0.33 0.55 0.48 0.31 0.15 0.07 0.04 0.03 0.01
0.00 0.01 0.01 0.01 0.01 0.01 0.01 0.01 0.01 0.01 0.02 0.05 0.09 0.12 0.12 0.10 0.09 0.06 0.04 0.04 0.03 0.02 0.03 0.03 0.03 0.01 0.00 0.00 0.00 0.01 0.02 0.06 0.14 0.25 0.38 0.50 0.52 0.44 0.26 0.12 0.04 0.02 0.02
0.00 0.00 0.00 0.01 0.01 0.01 0.01 0.00 0.00 0.01 0.01 0.02 0.05 0.10 0.11 0.13 0.11 0.06 0.04 0.03 0.03 0.03 0.03 0.04 0.03 0.02 0.00 0.00 0.00 0.00 0.01 0.02 0.05 0.11 0.25 0.38 0.41 0.35 0.21 0.08 0.03 0.03 0.02
0.00 0.00 0.00 0.00 0.00 0.00 0.00 0.01 0.01 0.01 0.01 0.01 0.02 0.06 0.10 0.14 0.16 0.12 0.07 0.04 0.03 0.03 0.02 0.01 0.02 0.02 0.01 0.00 0.00 0.00 0.00 0.01 0.03 0.06 0.12 0.18 0.19 0.15 0.09 0.05 0.04 0.03 0.02
0.00 0.00 0.00 0.00 0.00 0.00 0.00 0.01 0.02 0.02 0.02 0.01 0.01 0.03 0.07 0.13 0.17 0.15 0.12 0.07 0.05 0.04 0.02 0.01 0.01 0.01 0.00 0.00 0.00 0.00 0.00 0.01 0.02 0.02 0.03 0.03 0.02 0.02 0.02 0.02 0.01 0.01 0.01
0.00 0.00 0.00 0.01 0.01 0.01 0.01 0.02 0.02 0.03 0.02 0.01 0.01 0.02 0.04 0.13 0.18 0.17 0.15 0.10 0.08 0.07 0.07 0.04 0.01 0.00 0.00 0.00 0.01 0.00 0.00 0.00 0.00 0.00 0.00 0.00 0.00 0.00 0.00 0.00 0.01 0.01 0.00
0.01 0.01 0.01 0.02 0.03 0.03 0.03 0.03 0.03 0.03 0.03 0.03 0.03 0.04 0.05 0.10 0.21 0.22 0.20 0.16 0.11 0.10 0.10 0.07 0.01 0.00 0.00 0.00 0.01 0.01 0.00 0.00 0.00 0.00 0.00 0.00 0.00 0.00 0.00 0.00 0.00 0.00 0.00
0.02 0.02 0.02 0.02 0.02 0.02 0.04 0.05 0.06 0.06 0.05 0.04 0.04 0.05 0.06 0.07 0.12 0.22 0.19 0.14 0.12 0.09 0.09 0.08 0.02 0.00 0.00 0.00 0.00 0.00 0.00 0.00 0.00 0.00 0.00 0.00 0.00 0.00 0.00 0.00 0.00 0.00 0.00
0.03 0.03 0.03 0.04 0.04 0.05 0.06 0.07 0.08 0.08 0.05 0.03 0.03 0.08 0.11 0.09 0.08 0.17 0.17 0.12 0.11 0.14 0.11 0.10 0.03 0.00 0.00 0.00 0.00 0.00 0.00 0.00 0.00 0.00 0.00 0.00 0.00 0.00 0.00 0.00 0.00 0.00 0.00
0.05 0.05 0.06 0.07 0.07 0.08 0.09 0.09 0.09 0.08 0.07 0.06 0.06 0.12 0.12 0.10 0.07 0.11 0.17 0.14 0.14 0.20 0.16 0.08 0.04 0.00 0.00 0.00 0.00 0.00 0.00 0.00 0.00 0.00 0.00 0.00 0.00 0.00 0.00 0.00 0.00 0.00 0.00
0.11 0.10 0.10 0.10 0.09 0.08 0.08 0.07 0.07 0.07 0.06 0.06 0.08 0.15 0.16 0.14 0.12 0.12 0.17 0.18 0.18 0.21 0.16 0.08 0.04 0.01 0.00 0.00 0.00 0.00 0.00 0.00 0.00 0.00 0.00 0.00 0.00 0.00 0.00 0.00 0.00 0.00 0.00
0.15 0.13 0.11 0.11 0.10 0.10 0.09 0.07 0.04 0.02 0.02 0.02 0.03 0.08 0.13 0.12 0.09 0.07 0.12 0.15 0.16 0.17 0.13 0.07 0.03 0.00 0.00 0.00 0.00 0.00 0.00 0.00 0.00 0.00 0.00 0.00 0.00 0.00 0.00 0.00 0.00 0.00 0.00
0.13 0.12 0.11 0.10 0.08 0.07 0.08 0.08 0.08 0.06 0.02 0.01 0.01 0.02 0.06 0.04 0.03 0.05 0.08 0.10 0.10 0.09 0.06 0.03 0.01 0.00 0.00 0.00 0.00 0.00 0.00 0.00 0.00 0.00 0.00 0.00 0.00 0.00 0.00 0.00 0.00 0.00 0.00
0.12 0.12 0.12 0.11 0.10 0.07 0.05 0.06 0.07 0.09 0.08 0.06 0.03 0.02 0.05 0.03 0.06 0.10 0.08 0.08 0.07 0.05 0.02 0.00 0.00 0.00 0.00 0.00 0.00 0.00 0.00 0.00 0.00 0.00 0.00 0.00 0.00 0.00 0.00 0.00 0.00 0.00 0.00
0.13 0.11 0.10 0.09 0.08 0.06 0.06 0.07 0.08 0.06 0.07 0.14 0.11 0.03 0.05 0.05 0.14 0.21 0.11 0.06 0.04 0.03 0.01 0.00 0.00 0.00 0.00 0.00 0.00 0.00 0.00 0.00 0.00 0.00 0.00 0.00 0.00 0.00 0.00 0.00 0.00 0.00 0.00
0.10 0.08 0.06 0.04 0.04 0.04 0.06 0.09 0.07 0.05 0.07 0.15 0.13 0.05 0.03 0.06 0.19 0.27 0.12 0.04 0.04 0.02 0.00 0.00 0.00 0.00 0.00 0.00 0.00 0.00 0.00 0.00 0.00 0.00 0.00 0.00 0.00 0.00 0.00 0.00 0.00 0.00 0.00
0.07 0.05 0.04 0.03 0.03 0.06 0.08 0.07 0.05 0.06 0.09 0.15 0.14 0.07 0.03 0.06 0.18 0.22 0.08 0.03 0.03 0.02 0.01 0.00 0.00 0.00 0.00 0.00 0.00 0.00 0.00 0.00 0.00 0.00 0.00 0.00 0.00 0.00 0.00 0.00 0.00 0.00 0.00
0.06 0.04 0.05 0.06 0.09 0.11 0.10 0.08 0.09 0.11 0.10 0.12 0.10 0.04 0.03 0.07 0.13 0.13 0.06 0.02 0.01 0.01 0.00 0.00 0.00 0.00 0.00 0.00 0.00 0.00 0.00 0.00 0.00 0.00 0.00 0.00 0.00 0.00 0.00 0.00 0.00 0.00 0.00
0.09 0.08 0.07 0.11 0.13 0.10 0.11 0.12 0.11 0.09 0.08 0.07 0.06 0.04 0.03 0.05 0.06 0.05 0.03 0.01 0.00 0.00 0.00 0.00 0.00 0.00 0.00 0.00 0.00 0.00 0.00 0.00 0.00 0.00 0.00 0.00 0.00 0.00 0.00 0.00 0.00 0.00 0.00
0.04 0.05 0.05 0.05 0.06 0.06 0.08 0.07 0.05 0.05 0.05 0.04 0.04 0.03 0.02 0.02 0.01 0.01 0.01 0.00 0.00 0.00 0.00 0.00 0.00 0.00 0.00 0.00 0.00 0.00 0.00 0.00 0.00 0.00 0.00 0.00 0.00 0.00 0.00 0.00 0.00 0.00 0.00
0.03 0.02 0.01 0.01 0.02 0.03 0.05 0.06 0.06 0.07 0.07 0.04 0.02 0.01 0.01 0.01 0.00 0.00 0.00 0.00 0.00 0.00 0.00 0.00 0.00 0.00 0.00 0.00 0.00 0.00 0.00 0.00 0.00 0.00 0.00 0.00 0.00 0.00 0.00 0.00 0.00 0.00 0.00
0.04 0.05 0.06 0.06 0.06 0.06 0.08 0.10 0.11 0.10 0.07 0.04 0.01 0.01 0.02 0.02 0.01 0.00 0.01 0.01 0.00 0.00 0.00 0.00 0.00 0.00 0.00 0.00 0.00 0.00 0.00 0.00 0.00 0.00 0.00 0.00 0.00 0.00 0.00 0.00 0.00 0.00 0.00
MSLP
1011.15 1011.16 1011.11 1010.98 1010.75 1010.43 1010.04 1009.63 1009.23 1008.88 1008.59 1008.39 1008.25 1008.15 1008.07 1007.99 1007.89 1007.76 1007.60 1007.44 1007.28 1007.15 1007.03 1006.92 1006.83 1006.73 1006.62 1006.48 1006.33 1006.17 1006.04 1005.95 1005.95 1006.06 1006.28 1006.62 1007.08 1007.62 1008.23 1008.86 1009.49 1010.09 1010.62
1011.02 1011.01 1010.95 1010.81 1010.58 1010.26 1009.87 1009.46 1009.06 1008.70 1008.40 1008.17 1008.00 1007.86 1007.75 1007.62 1007.48 1007.31 1007.12 1006.92 1006.73 1006.55 1006.40 1006.27 1006.17 1006.07 1005.98 1005.89 1005.81 1005.74 1005.71 1005.73 1005.84 1006.04 1006.36 1006.78 1007.30 1007.90 1008.54 1009.20 1009.86 1010.47 1011.02
1010.68 1010.64 1010.55 1010.39 1010.15 1009.83 1009.46 1009.07 1008.69 1008.35 1008.06 1007.83 1007.65 1007.51 1007.38 1007.24 1007.07 1006.89 1006.68 1006.46 1006.25 1006.06 1005.89 1005.76 1005.66 1005.58 1005.53 1005.50 1005.48 1005.50 1005.56 1005.68 1005.88 1006.16 1006.54 1007.01 1007.56 1008.17 1008.81 1009.47 1010.12 1010.73 1011.28
1010.13 1010.05 1009.93 1009.74 1009.49 1009.18 1008.83 1008.47 1008.12 1007.82 1007.56 1007.36 1007.20 1007.07 1006.95 1006.82 1006.66 1006.48 1006.28 1006.07 1005.87 1005.68 1005.53 1005.41 1005.34 1005.30 1005.29 1005.31 1005.37 1005.47 1005.61 1005.80 1006.07 1006.40 1006.81 1007.28 1007.82 1008.40 1009.01 1009.63 1010.24 1010.82 1011.37
1009.39 1009.27 1009.11 1008.91 1008.65 1008.35 1008.03 1007.71 1007.41 1007.15 1006.94 1006.78 1006.65 1006.55 1006.46 1006.35 1006.22 1006.07 1005.91 1005.73 1005.56 1005.41 1005.29 1005.22 1005.18 1005.19 1005.23 1005.32 1005.44 1005.60 1005.80 1006.05 1006.35 1006.70 1007.10 1007.56 1008.05 1008.57 1009.11 1009.66 1010.21 1010.75 1011.28
1008.53 1008.38 1008.19 1007.97 1007.71 1007.43 1007.14 1006.86 1006.60 1006.39 1006.23 1006.10 1006.02 1005.96 1005.90 1005.83 1005.74 1005.64 1005.52 1005.40 1005.29 1005.20 1005.14 1005.12 1005.14 1005.20 1005.30 1005.44 1005.62 1005.83 1006.07 1006.35 1006.66 1007.01 1007.39 1007.79 1008.22 1008.66 1009.12 1009.59 1010.06 1010.55 1011.05
1007.61 1007.44 1007.24 1007.02 1006.77 1006.50 1006.24 1005.99 1005.77 1005.60 1005.47 1005.38 1005.33 1005.30 1005.28 1005.25 1005.22 1005.17 1005.12 1005.07 1005.03 1005.01 1005.01 1005.06 1005.14 1005.25 1005.41 1005.60 1005.82 1006.06 1006.34 1006.63 1006.94 1007.27 1007.62 1007.96 1008.32 1008.69 1009.06 1009.44 1009.85 1010.28 1010.74
1006.73 1006.56 1006.36 1006.13 1005.89 1005.64 1005.39 1005.16 1004.97 1004.81 1004.71 1004.64 1004.61 1004.61 1004.63 1004.65 1004.67 1004.69 1004.70 1004.73 1004.76 1004.81 1004.89 1004.99 1005.13 1005.29 1005.49 1005.72 1005.97 1006.24 1006.53 1006.83 1007.14 1007.46 1007.77 1008.08 1008.38 1008.68 1008.98 1009.29 1009.63 1010.01 1010.43
1005.97 1005.79 1005.59 1005.37 1005.13 1004.88 1004.64 1004.42 1004.23 1004.08 1003.98 1003.93 1003.92 1003.94 1003.99 1004.05 1004.12 1004.20 1004.29 1004.39 1004.49 1004.61 1004.75 1004.90 1005.08 1005.28 1005.51 1005.76 1006.03 1006.32 1006.63 1006.94 1007.26 1007.57 1007.87 1008.16 1008.43 1008.69 1008.94 1009.20 1009.49 1009.82 1010.21
1005.35 1005.17 1004.97 1004.75 1004.50 1004.24 1003.99 1003.76 1003.57 1003.41 1003.31 1003.26 1003.26 1003.31 1003.39 1003.49 1003.62 1003.77 1003.92 1004.08 1004.25 1004.42 1004.60 1004.79 1005.00 1005.22 1005.47 1005.73 1006.02 1006.32 1006.65 1006.98 1007.32 1007.64 1007.95 1008.24 1008.50 1008.75 1008.98 1009.22 1009.48 1009.78 1010.13
1004.86 1004.68 1004.46 1004.22 1003.96 1003.68 1003.41 1003.17 1002.96 1002.80 1002.69 1002.65 1002.67 1002.74 1002.86 1003.01 1003.20 1003.40 1003.61 1003.83 1004.04 1004.26 1004.47 1004.68 1004.90 1005.13 1005.38 1005.65 1005.95 1006.27 1006.62 1006.98 1007.34 1007.70 1008.04 1008.35 1008.64 1008.89 1009.13 1009.36 1009.61 1009.88 1010.20
1004.44 1004.23 1003.99 1003.72 1003.43 1003.14 1002.85 1002.58 1002.36 1002.20 1002.10 1002.08 1002.12 1002.23 1002.40 1002.61 1002.86 1003.12 1003.38 1003.64 1003.89 1004.13 1004.36 1004.57 1004.79 1005.02 1005.27 1005.54 1005.85 1006.19 1006.56 1006.96 1007.36 1007.76 1008.14 1008.49 1008.81 1009.10 1009.36 1009.60 1009.84 1010.10 1010.40
1003.99 1003.75 1003.47 1003.17 1002.85 1002.53 1002.23 1001.96 1001.74 1001.59 1001.51 1001.52 1001.61 1001.78 1002.01 1002.29 1002.59 1002.91 1003.22 1003.51 1003.78 1004.03 1004.26 1004.47 1004.68 1004.90 1005.14 1005.42 1005.74 1006.10 1006.50 1006.93 1007.38 1007.82 1008.25 1008.65 1009.01 1009.32 1009.61 1009.87 1010.12 1010.38 1010.67
1003.43 1003.14 1002.82 1002.49 1002.15 1001.82 1001.51 1001.25 1001.05 1000.93 1000.90 1000.97 1001.13 1001.36 1001.66 1002.00 1002.37 1002.73 1003.08 1003.40 1003.68 1003.93 1004.14 1004.34 1004.54 1004.75 1004.99 1005.27 1005.61 1005.99 1006.43 1006.89 1007.38 1007.87 1008.33 1008.77 1009.16 1009.51 1009.82 1010.11 1010.38 1010.64 1010.93
1002.70 1002.36 1002.01 1001.66 1001.31 1000.98 1000.69 1000.46 1000.30 1000.24 1000.27 1000.41 1000.64 1000.95 1001.32 1001.73 1002.15 1002.55 1002.93 1003.26 1003.54 1003.77 1003.97 1004.15 1004.34 1004.54 1004.78 1005.08 1005.44 1005.85 1006.32 1006.82 1007.34 1007.85 1008.35 1008.81 1009.23 1009.61 1009.94 1010.25 1010.53 1010.82 1011.11
1001.79 1001.42 1001.05 1000.69 1000.36 1000.05 999.80 999.62 999.53 999.53 999.64 999.86 1000.17 1000.55 1000.99 1001.45 1001.91 1002.34 1002.72 1003.05 1003.31 1003.53 1003.72 1003.88 1004.06 1004.26 1004.51 1004.83 1005.21 1005.65 1006.15 1006.67 1007.22 1007.76 1008.27 1008.75 1009.18 1009.57 1009.92 1010.24 1010.55 1010.86 1011.18
1000.80 1000.41 1000.04 999.70 999.39 999.13 998.94 998.82 998.80 998.88 999.07 999.36 999.74 1000.18 1000.67 1001.16 1001.64 1002.08 1002.45 1002.77 1003.01 1003.21 1003.37 1003.53 1003.70 1003.91 1004.17 1004.51 1004.92 1005.39 1005.92 1006.47 1007.03 1007.58 1008.09 1008.57 1009.01 1009.40 1009.77 1010.11 1010.44 1010.78 1011.13
999.83 999.44 999.09 998.79 998.53 998.33 998.20 998.16 998.21 998.36 998.61 998.96 999.39 999.88 1000.39 1000.90 1001.37 1001.80 1002.15 1002.44 1002.66 1002.83 1002.97 1003.11 1003.28 1003.51 1003.79 1004.16 1004.60 1005.10 1005.64 1006.21 1006.78 1007.33 1007.85 1008.32 1008.75 1009.15 1009.52 1009.87 1010.23 1010.60 1010.98
999.00 998.64 998.33 998.07 997.87 997.74 997.68 997.70 997.81 998.02 998.32 998.71 999.17 999.67 1000.18 1000.68 1001.14 1001.53 1001.86 1002.11 1002.29 1002.44 1002.57 1002.70 1002.88 1003.11 1003.42 1003.81 1004.28 1004.80 1005.37 1005.95 1006.52 1007.07 1007.58 1008.04 1008.47 1008.86 1009.23 1009.60 1009.97 1010.36 1010.78
998.42 998.09 997.83 997.63 997.49 997.41 997.41 997.48 997.64 997.89 998.22 998.62 999.08 999.57 1000.07 1000.54 1000.96 1001.32 1001.61 1001.83 1001.98 1002.10 1002.22 1002.35 1002.53 1002.78 1003.11 1003.52 1004.01 1004.55 1005.13 1005.72 1006.29 1006.83 1007.33 1007.78 1008.19 1008.58 1008.95 1009.32 1009.70 1010.11 1010.54
998.12 997.83 997.62 997.47 997.38 997.35 997.39 997.50 997.68 997.94 998.27 998.67 999.11 999.58 1000.05 1000.48 1000.87 1001.19 1001.44 1001.63 1001.76 1001.87 1001.98 1002.11 1002.30 1002.56 1002.90 1003.33 1003.83 1004.38 1004.96 1005.55 1006.11 1006.65 1007.13 1007.57 1007.97 1008.34 1008.71 1009.07 1009.45 1009.86 1010.28
998.05 997.81 997.64 997.53 997.48 997.48 997.54 997.67 997.85 998.11 998.43 998.81 999.22 999.66 1000.09 1000.49 1000.84 1001.13 1001.36 1001.52 1001.64 1001.75 1001.85 1001.99 1002.18 1002.45 1002.80 1003.24 1003.74 1004.29 1004.86 1005.44 1006.00 1006.51 1006.99 1007.41 1007.80 1008.16 1008.50 1008.85 1009.22 1009.60 1010.00
998.14 997.93 997.79 997.71 997.68 997.70 997.77 997.88 998.06 998.30 998.59 998.94 999.32 999.72 1000.12 1000.49 1000.82 1001.09 1001.31 1001.47 1001.60 1001.70 1001.82 1001.97 1002.17 1002.44 1002.79 1003.22 1003.72 1004.26 1004.82 1005.38 1005.92 1006.42 1006.87 1007.28 1007.65 1007.99 1008.32 1008.64 1008.97 1009.32 1009.67
998.28 998.08 997.96 997.89 997.86 997.87 997.93 998.03 998.19 998.40 998.66 998.98 999.33 999.70 1000.08 1000.43 1000.75 1001.03 1001.25 1001.42 1001.56 1001.69 1001.82 1001.98 1002.19 1002.47 1002.82 1003.24 1003.72 1004.25 1004.79 1005.33 1005.84 1006.32 1006.76 1007.15 1007.49 1007.81 1008.11 1008.40 1008.69 1008.99 1009.29
998.36 998.16 998.04 997.96 997.92 997.92 997.96 998.04 998.17 998.35 998.58 998.87 999.20 999.55 999.91 1000.26 1000.59 1000.87 1001.12 1001.32 1001.48 1001.64 1001.79 1001.98 1002.20 1002.49 1002.84 1003.25 1003.71 1004.21 1004.73 1005.24 1005.74 1006.20 1006.61 1006.97 1007.30 1007.59 1007.85 1008.10 1008.35 1008.59 1008.84
998.35 998.14 997.99 997.90 997.84 997.82 997.83 997.88 997.98 998.13 998.34 998.61 998.92 999.26 999.61 999.97 1000.30 1000.61 1000.88 1001.11 1001.32 1001.51 1001.70 1001.91 1002.15 1002.45 1002.80 1003.20 1003.65 1004.13 1004.63 1005.12 1005.59 1006.03 1006.41 1006.76 1007.05 1007.31 1007.54 1007.76 1007.96 1008.16 1008.35
Thickness
5648 5646 5645 5647 5648 5649 5651 5656 5661 5665 5669 5672 5676 5680 5683 5684 5684 5684 5687 5690 5692 5692 5692 5690 5690 5692 5691 5690 5688 5686 5686 5685 5682 5683 5685 5686 5685 5683 5681 5679 5676 5674 5671
5630 5628 5628 5630 5631 5632 5634 5636 5639 5645 5653 5659 5663 5667 5671 5675 5677 5678 5680 5684 5687 5688 5687 5685 5685 5686 5686 5685 5682 5681 5682 5684 5681 5676 5674 5673 5673 5673 5671 5668 5665 5662 5660
5615 5613 5612 5613 5615 5617 5618 5620 5622 5625 5631 5641 5649 5653 5658 5664 5668 5671 5674 5678 5681 5683 5682 5680 5679 5680 5679 5679 5677 5676 5678 5680 5679 5673 5667 5665 5663 5662 5660 5656 5653 5651 5650
5599 5597 5596 5596 5598 5601 5604 5605 5607 5610 5615 5621 5630 5637 5643 5651 5657 5662 5666 5671 5675 5678 5678 5676 5675 5674 5673 5673 5672 5671 5672 5674 5671 5666 5660 5656 5653 5652 5650 5647 5642 5642 5642
5580 5579 5578 5580 5581 5583 5586 5589 5592 5595 5600 5606 5613 5618 5626 5633 5643 5649 5654 5662 5667 5671 5672 5672 5670 5666 5665 5666 5666 5664 5665 5665 5662 5656 5651 5647 5644 5643 5641 5640 5638 5636 5635
5557 5557 5558 5560 5562 5565 5567 5570 5574 5579 5585 5591 5596 5602 5609 5617 5624 5630 5638 5649 5657 5662 5664 5664 5660 5658 5657 5658 5657 5657 5656 5655 5652 5649 5644 5640 5637 5635 5634 5633 5633 5632 5628
5546 5546 5545 5546 5548 5551 5555 5558 5560 5563 5567 5572 5579 5585 5593 5602 5608 5616 5623 5633 5643 5650 5655 5655 5656 5652 5651 5651 5650 5649 5647 5644 5644 5642 5637 5634 5631 5629 5628 5628 5629 5629 5629
5541 5539 5538 5538 5540 5543 5546 5549 5553 5555 5557 5559 5562 5567 5573 5583 5594 5602 5609 5616 5627 5637 5644 5647 5647 5644 5644 5645 5645 5642 5638 5635 5634 5633 5632 5630 5629 5628 5628 5629 5630 5628 5628
5533 5531 5530 5530 5532 5534 5537 5541 5544 5548 5551 5552 5552 5554 5558 5564 5573 5583 5593 5601 5611 5621 5631 5637 5638 5637 5636 5637 5637 5634 5630 5626 5625 5625 5626 5626 5626 5627 5629 5628 5625 5622 5619
5525 5523 5522 5521 5522 5525 5529 5532 5535 5539 5543 5546 5549 5550 5551 5552 5555 5563 5574 5584 5593 5603 5614 5623 5628 5628 5627 5628 5628 5627 5624 5620 5618 5617 5617 5621 5623 5625 5625 5625 5623 5621 5619
5516 5513 5512 5511 5512 5516 5520 5524 5527 5530 5535 5539 5542 5544 5545 5544 5542 5547 5555 5567 5576 5583 5594 5606 5614 5617 5618 5619 5620 5621 5620 5618 5615 5613 5613 5615 5617 5618 5618 5618 5621 5623 5621
5501 5500 5500 5500 5501 5507 5512 5517 5520 5523 5526 5530 5533 5536 5539 5539 5537 5536 5542 5553 5563 5570 5577 5588 5600 5606 5608 5610 5612 5613 5614 5614 5611 5609 5608 5609 5610 5609 5609 5612 5615 5619 5621
5485 5486 5488 5489 5491 5494 5500 5506 5510 5514 5517 5522 5527 5532 5535 5536 5533 5530 5532 5540 5551 5560 5566 5574 5583 5592 5597 5600 5602 5604 5606 5609 5608 5606 5605 5605 5605 5603 5603 5606 5609 5612 5614
5470 5473 5476 5478 5482 5486 5490 5494 5499 5504 5509 5513 5517 5524 5530 5531 5528 5523 5524 5528 5538 5550 5558 5564 5570 5578 5589 5592 5591 5594 5599 5605 5606 5604 5602 5599 5598 5598 5599 5601 5603 5604 5603
5459 5462 5465 5470 5474 5479 5482 5486 5490 5496 5500 5502 5507 5513 5520 5522 5521 5520 5519 5521 5529 5541 5548 5552 5559 5570 5580 5583 5585 5588 5594 5600 5602 5602 5597 5594 5594 5596 5597 5600 5600 5600 5599
5452 5457 5461 5465 5468 5471 5474 5478 5483 5487 5492 5495 5498 5503 5510 5513 5513 5510 5509 5511 5519 5530 5539 5547 5557 5569 5576 5579 5580 5583 5590 5594 5597 5596 5594 5592 5593 5596 5598 5599 5600 5599 5596
5451 5455 5457 5459 5461 5463 5465 5469 5476 5481 5485 5491 5494 5498 5502 5504 5504 5502 5501 5504 5512 5523 5537 5549 5559 5569 5574 5575 5577 5581 5585 5590 5591 5591 5590 5591 5594 5596 5597 5598 5600 5599 5597
5453 5454 5454 5455 5456 5457 5460 5466 5473 5481 5488 5495 5493 5493 5495 5497 5497 5496 5496 5501 5513 5526 5543 5555 5563 5569 5573 5574 5577 5580 5584 5586 5587 5587 5588 5591 5593 5594 5595 5596 5596 5595 5593
5454 5453 5452 5452 5453 5455 5458 5464 5473 5481 5489 5495 5496 5491 5489 5490 5490 5492 5496 5510 5524 5537 5547 5557 5564 5569 5573 5575 5578 5581 5583 5583 5586 5587 5589 5590 5591 5593 5594 5594 5592 5590 5590
5457 5454 5452 5452 5454 5458 5463 5469 5478 5486 5492 5495 5497 5495 5490 5492 5494 5495 5503 5518 5530 5540 5548 5555 5563 5569 5572 5576 5579 5580 5581 5583 5585 5587 5587 5588 5590 5592 5592 5591 5588 5586 5586
5465 5462 5460 5461 5464 5468 5473 5480 5488 5494 5497 5499 5500 5499 5497 5501 5503 5507 5515 5525 5533 5540 5547 5555 5563 5570 5573 5576 5578 5579 5581 5583 5584 5586 5586 5588 5590 5591 5591 5588 5585 5583 5582
5480 5480 5479 5479 5480 5482 5486 5493 5498 5502 5507 5508 5505 5500 5500 5508 5512 5517 5526 5532 5538 5545 5552 5559 5567 5573 5576 5578 5579 5580 5582 5583 5585 5587 5587 5589 5590 5590 5587 5584 5581 5579 5577
5494 5494 5494 5495 5496 5497 5499 5505 5509 5513 5515 5515 5513 5511 5512 5518 5522 5528 5536 5540 5545 5552 5560 5565 5571 5577 5580 5582 5582 5583 5584 5584 5587 5589 5588 5588 5587 5586 5584 5581 5579 5576 5573
5507 5508 5508 5509 5510 5512 5513 5515 5518 5519 5520 5520 5521 5523 5526 5530 5535 5540 5545 5549 5553 5559 5565 5570 5575 5580 5583 5584 5584 5586 5588 5588 5589 5590 5589 5586 5584 5583 5581 5578 5576 5574 5570
5519 5518 5518 5518 5518 5519 5521 5522 5523 5523 5524 5527 5529 5532 5536 5541 5545 5550 5553 5557 5560 5566 5570 5574 5578 5582 5585 5586 5586 5589 5590 5589 5588 5588 5587 5585 5582 5580 5578 5575 5572 5570 5568
5534 5531 5529 5528 5528 5528 5529 5529 5529 5530 5532 5535 5539 5543 5547 5551 5556 5560 5562 5564 5567 5571 5574 5577 5581 5585 5588 5589 5590 5589 5588 5587 5585 5584 5583 5581 5579 5577 5574 5571 5569 5566 5564